Location: A�t �Alizem
(31.2076°N, 8.7872°W)
Time: 05:05:24
(UTC+00:00)

Cosmos 1943 - Pass Details

Date: 27 November 2020
Orbit: 832 x 851 km, 71.0° (Epoch: 25 January)

Event Time Altitude Azimuth Distance (km) Brightness Sun altitude
Rises 18:45:14 0° 185° (S) 3,367 6.6 -15.4°
Reaches altitude 10° 18:47:43 10° 180° (S) 2,439 5.8 -15.9°
Maximum altitude 18:53:06 50° 106° (ESE) 1,058 3.4 -17.0°
Enters shadow 18:56:23 23° 41° (NE) 1,713 4.3 -17.7°
